FENGYUN 1C DEB, 30297

Orbit data source: Space-Track

FENGYUN 1C DEB, 30297 is space debris in SSO originally from a launch on Mon, 10 May 1999 UTC launched from the Taiyaun Space Center, China (TSC). Fengyun 1C debris stems from the Chinese weather satellite Fengyun-1C, which was intentionally destroyed by a Chinese anti-satellite missile in 2007. This event dramatically increased the amount of space debris, with thousands of trackable fragments posing hazards to satellites and human spaceflight. The Fengyun 1C debris cloud has become a focal point in discussions about space sustainability and the need for international regulations to prevent the creation of new debris.

Loading next visibility...
Identifier
30297, 1999-025ZJ
Orbit
SSO
Country
Flag of CNCN / PRC
Related business
Manufacturer
Unknown
Mission
Spacecraft
Bus & Motor
Unknown
Mass
Unknown
Launch date (UTC)
1999-05-10 (27 years ago)
Launch vehicle
Unknown
Launch site
Taiyaun Space Center, China (TSC)
Object type
Payload
Rocket body
Debris
Shape & HBR
Unknown shape, 0.1 m
Radar Cross Section
Medium (>0.1 m² and <1 m²)

Expand to show TLE details & history
Last TLE update: 18 hours ago

TLE from 18 hours ago
0 FENGYUN 1C DEB
1 30297U 99025ZJ  26255.15352987  .00008894  00000-0  18229-2 0  9999
2 30297  98.8333 213.8310 0362126  42.3158 332.7582 14.26971908990463
Epoch: 2026-09-12T03:41Z
TLE epoch observation values (Epoch: 2026-09-12T03:41:04.980Z)
Latitude
12.90048°
Longitude
165.36507°
Altitude
574.896 km
Speed
7.694 km/s
True Right ascension
14h 07m 12s
True Declination
12° 49' 26"
Sunlit
Object was in daylight at epoch
Visualization orbit readout
Latitude
Unknown
Longitude
Unknown
Altitude
Unknown
Speed
Unknown
Apparent Right ascension
Unknown
Apparent Declination
Unknown
Sunlit
N/A
Visualization observer readout
Local Sidereal Time
13:44:36
Azimuth
Unknown
Elevation
Unknown
Doppler factor
Unknown
Orbital elements
Apogee altitude
1,058.924 km
Perigee altitude
539.117 km
Semi-major axis
7,177.157 km
Eccentricity
0.03621
Inclination
98.8333°
RAAN
213.831°
Arg. of periapsis
42.3158°
True anomaly
330.77959°
Mean anomaly
332.7582°
Eccentric anomaly
331.777°
Mean motion
3.56956 °/min
Orbital period
100.85 mins
BSTAR
0.0018229
Loading maneuver chart data...
Computing Atmospheric mass density...

Documentation

Showing up to 5 results
|